Location: Augirein
(42.9320°N, 0.9181°E)
Time: 18:59:53
(UTC+00:00)

Tiangong - Visible Passes

Search period start: 26 September 2021 00:00
Search period end: 06 October 2021 00:00
Orbit: 382 x 385 km, 41.5° (Epoch: 26 September)

Date Brightness Start Highest point End Pass type
(mag) Time Alt. Az. Time Alt. Az. Time Alt. Az.
26 Sep 3.9 04:00:07 10° SSE 04:00:36 10° SSE 04:01:04 10° SE visible
27 Sep 2.8 04:35:19 16° SSW 04:37:04 25° SSE 04:39:45 10° E visible
28 Sep 3.8 03:38:24 15° SE 03:38:24 15° SE 03:39:27 10° ESE visible
28 Sep 1.6 05:10:39 10° WSW 05:13:43 50° SSE 05:16:49 10° E visible
29 Sep 2.0 04:13:37 36° S 04:13:52 37° SSE 04:16:50 10° E visible
30 Sep 4.4 03:16:36 11° E 03:16:36 11° E 03:16:44 10° E visible
30 Sep 1.3 04:48:48 22° WSW 04:50:35 62° S 04:53:44 10° E visible
01 Oct 2.6 03:51:44 33° ESE 03:51:44 33° ESE 03:53:46 10° E visible
01 Oct 1.2 05:24:15 10° W 05:27:23 65° S 05:30:32 10° ESE visible
02 Oct 1.1 04:26:52 52° WSW 04:27:27 68° S 04:30:36 10° E visible
03 Oct 4.0 03:29:48 17° E 03:29:48 17° E 03:30:38 10° E visible
03 Oct 1.3 05:02:00 17° W 05:04:12 55° S 05:07:19 10° ESE visible
04 Oct 1.9 04:04:58 47° SE 04:04:58 47° SE 04:07:25 10° ESE visible
05 Oct 1.7 04:40:10 34° SW 04:40:58 42° SSW 04:43:58 10° ESE visible
